Location: Eschertshofen
(49.3064°N, 11.5756°E)
Time: 17:21:12
(UTC+00:00)

Spot 2 Rocket - Pass Details

Date: 28 June 2021
Orbit: 757 x 771 km, 98.5° (Epoch: 25 July)

Event Time Altitude Azimuth Distance (km) Brightness Sun altitude
Exits shadow 20:30:02 - 167° (SSE) 2,498 5.6 -8.5°
Reaches altitude 10° 20:30:32 10° 168° (SSE) 2,298 5.4 -8.5°
Maximum altitude 20:35:37 81° 256° (WSW) 784 3.6 -9.0°
Drops below altitude 10° 20:40:45 10° 344° (NNW) 2,324 7.3 -9.5°
Sets 20:43:05 0° 345° (NNW) 3,257 8.3 -9.8°
